DW8534 Weather Reports


Display with metric or nautical units.
time (UTC)temp
F
wind
direction
speed
MPH
gust
MPH
rain 1hr
in
rain 24hr
in
rain mn
in
humidity
%
barometer
mb
20260506123014 56 351 3.0 0.0 0.00 0.00 0.00 82 1007.9
20260506121513 56 31 3.0 0.0 0.00 0.00 0.00 82 1007.8
20260506120015 57 320 1.0 0.0 0.00 0.00 0.00 84 1007.8
20260506114508 57 21 2.0 0.0 0.00 0.00 0.00 84 1007.5
20260506113006 57 283 2.0 0.0 0.00 0.00 0.00 84 1007.2
20260506111504 57 5 2.0 0.0 0.00 0.00 0.00 84 1006.8
20260506110005 57 18 3.0 0.0 0.00 0.00 0.00 84 1006.7
20260506104502 57 27 2.0 0.0 0.00 0.00 0.00 86 1006.6
20260506103005 57 5 1.0 0.0 0.00 0.00 0.00 87 1006.2
20260506101600 57 355 1.0 0.0 0.00 0.00 0.00 88 1006.0
20260506100113 57 15 1.0 0.0 0.00 0.00 0.00 88 1005.9
20260506094603 57 25 1.0 0.0 0.00 0.00 0.00 88 1005.6
20260506093058 58 277 1.0 0.0 0.00 0.00 0.00 88 1005.6
20260506091553 59 307 1.0 0.0 0.00 0.00 0.00 86 1005.6
20260506090051 60 327 1.0 0.0 0.00 0.00 0.00 84 1005.6
20260506084616 61 319 1.0 0.0 0.00 0.00 0.00 82 1005.4
20260506083046 61 337 2.0 0.0 0.00 0.00 0.00 82 1005.1
20260506081552 62 13 1.0 0.0 0.00 0.00 0.00 82 1004.9
20260506073040 63 10 1.0 0.0 0.00 0.00 0.00 82 1005.0
20260506071538 63 28 2.0 0.0 0.00 0.00 0.00 82 1005.1
20260506061531 65 20 3.0 0.0 0.00 0.00 0.00 80 1004.9
20260506044520 69 31 2.0 0.0 0.00 0.00 0.00 77 1004.4
20260506043017 70 303 2.0 0.0 0.00 0.00 0.00 77 1004.6
20260506041515 70 24 1.0 0.0 0.00 0.00 0.00 75 1004.4
20260506040015 71 15 1.0 0.0 0.00 0.00 0.00 74 1004.4
20260506034514 72 24 2.0 0.0 0.00 0.00 0.00 74 1003.8
20260506033014 72 11 1.0 0.0 0.00 0.00 0.00 73 1003.6
20260506031513 73 21 2.0 0.0 0.00 0.00 0.00 72 1003.5
20260506030014 73 319 2.0 0.0 0.00 0.00 0.00 72 1003.4
20260506024511 75 59 1.0 0.0 0.00 0.00 0.00 71 1002.9
20260506023011 76 360 2.0 0.0 0.00 0.00 0.00 71 1002.4
20260506021510 78 180 0.0 0.0 0.00 0.00 0.00 82 1001.9
20260506020010 78 180 1.0 0.0 0.00 0.00 0.00 82 1001.6
20260506014509 78 189 1.0 0.0 0.00 0.00 0.00 82 1001.6
20260506013013 78 187 1.0 0.0 0.00 0.00 0.00 81 1001.2
20260506011509 79 186 1.0 0.0 0.00 0.00 0.00 81 1001.3
20260506010013 79 166 4.0 0.0 0.00 0.00 0.00 81 1000.6
20260506004511 79 128 5.0 0.0 0.00 0.00 0.00 80 1000.6
20260506003008 80 127 5.0 0.0 0.00 0.00 0.00 80 1000.6
20260506001507 80 112 5.0 0.0 0.00 0.00 0.00 79 1000.5
20260506000006 80 135 5.0 0.0 0.00 0.00 0.00 79 1000.4
20260505234506 81 159 5.0 0.0 0.00 0.00 0.00 78 1000.5
20260505233006 81 145 6.0 0.0 0.00 0.00 0.00 78 1000.3
20260505231504 82 121 6.0 0.0 0.00 0.00 0.00 77 1000.1
20260505230010 83 149 5.0 0.0 0.00 0.00 0.00 75 1000.0
20260505224505 84 121 5.0 0.0 0.00 0.00 0.00 74 1000.0
20260505223005 85 169 6.0 0.0 0.00 0.00 0.00 73 999.8
20260505221503 85 138 5.0 0.0 0.00 0.00 0.00 71 999.8
20260505220002 86 128 4.0 0.0 0.00 0.00 0.00 71 999.8
20260505214502 86 190 5.0 0.0 0.00 0.00 0.00 70 999.7
20260505213002 86 190 6.0 0.0 0.00 0.00 0.00 68 1000.0
20260505211502 86 194 6.0 0.0 0.00 0.00 0.00 69 1000.0
20260505210000 86 206 6.0 0.0 0.00 0.00 0.00 68 1000.2
20260505204600 86 190 7.0 0.0 0.00 0.00 0.00 67 1000.3
20260505203120 86 225 6.0 0.0 0.00 0.00 0.00 68 1000.6
20260505201602 85 214 6.0 0.0 0.00 0.00 0.00 72 1000.6
20260505200055 84 195 6.0 0.0 0.00 0.00 0.00 73 1000.7
20260505194550 84 181 7.0 0.0 0.00 0.00 0.00 74 1000.7
20260505193050 84 184 6.0 0.0 0.00 0.00 0.00 71 1000.8
20260505191559 83 230 7.0 0.0 0.00 0.00 0.00 72 1000.9
20260505190047 82 236 9.0 0.0 0.00 0.00 0.00 75 1001.2
20260505184541 81 208 9.0 0.0 0.00 0.00 0.00 77 1001.3
20260505183039 81 146 9.0 0.0 0.00 0.00 0.00 77 1001.7
20260505181543 81 173 7.0 0.0 0.00 0.00 0.00 75 1001.7
20260505180038 80 224 7.0 0.0 0.00 0.00 0.00 77 1001.8
20260505174541 79 209 8.0 0.0 0.00 0.00 0.00 77 1001.8
20260505173032 79 197 9.0 0.0 0.00 0.00 0.00 78 1001.5
20260505171532 79 159 7.0 0.0 0.00 0.00 0.00 80 1001.6
20260505170027 77 175 7.0 0.0 0.00 0.00 0.00 81 1001.7
20260505164527 77 190 9.0 0.0 0.00 0.00 0.00 81 1001.4
20260505163030 77 165 10.0 0.0 0.00 0.00 0.00 82 1001.4
20260505161520 76 192 8.0 0.0 0.00 0.00 0.00 84 1001.8
20260505153015 74 173 8.0 0.0 0.00 0.00 0.00 84 1001.6
20260505151518 74 176 8.0 0.0 0.00 0.00 0.00 85 1001.3
20260505124504 70 167 5.0 0.0 0.00 0.00 0.00 90 1000.7